TimePST,TemperatureF,Dew PointF,Humidity,Sea Level PressureIn,VisibilityMPH,Wind Direction,Wind SpeedMPH,Gust SpeedMPH,PrecipitationIn,Events,Conditions,WindDirDegrees,DateUTC
12:15 AM,59.0,57.2,94,29.92,10.0,SE,18.4,28.8,N/A,,Overcast,130,2012-11-20 08:15:00
12:35 AM,59.0,57.2,94,29.91,10.0,SE,26.5,33.4,N/A,,Overcast,130,2012-11-20 08:35:00
12:55 AM,59.0,57.2,94,29.90,10.0,SE,26.5,34.5,N/A,,Overcast,130,2012-11-20 08:55:00
1:15 AM,59.0,57.2,94,29.90,10.0,ESE,24.2,31.1,N/A,,Overcast,120,2012-11-20 09:15:00
1:35 AM,59.0,57.2,94,29.89,10.0,ESE,20.7,28.8,N/A,,Overcast,120,2012-11-20 09:35:00
1:55 AM,59.0,57.2,94,29.88,10.0,ESE,25.3,31.1,N/A,,Overcast,120,2012-11-20 09:55:00
2:15 AM,59.0,57.2,94,29.88,10.0,SE,24.2,31.1,N/A,,Overcast,130,2012-11-20 10:15:00
2:35 AM,59.0,57.2,94,29.88,7.0,SE,25.3,31.1,0.02,,Overcast,130,2012-11-20 10:35:00
2:55 AM,59.0,57.2,94,29.89,5.0,SE,16.1,23.0,0.04,,Overcast,140,2012-11-20 10:55:00
3:15 AM,59.0,57.2,94,29.88,5.0,SE,13.8,-,N/A,,Overcast,140,2012-11-20 11:15:00
3:35 AM,59.0,57.2,94,29.87,5.0,SE,19.6,-,0.02,,Overcast,130,2012-11-20 11:35:00
3:55 AM,59.0,57.2,94,29.87,7.0,SE,19.6,25.3,0.02,,Overcast,130,2012-11-20 11:55:00
4:15 AM,59.0,59.0,100,29.87,4.0,SE,13.8,20.7,0.04,,Overcast,140,2012-11-20 12:15:00
4:35 AM,59.0,59.0,100,29.86,6.0,SE,12.7,-,0.11,,Mostly Cloudy,140,2012-11-20 12:35:00
4:55 AM,59.0,59.0,100,29.85,4.0,SE,17.3,21.9,0.13,,Overcast,140,2012-11-20 12:55:00
5:15 AM,59.0,57.2,94,29.86,5.0,SSE,15.0,25.3,0.01,,Overcast,160,2012-11-20 13:15:00
5:35 AM,59.0,59.0,100,29.87,4.0,South,12.7,18.4,0.03,,Overcast,170,2012-11-20 13:35:00
5:55 AM,60.8,57.2,88,29.86,8.0,South,16.1,31.1,0.03,,Overcast,180,2012-11-20 13:55:00
6:15 AM,60.8,57.2,88,29.85,5.0,South,19.6,28.8,0.04,,Overcast,170,2012-11-20 14:15:00
6:35 AM,62.6,57.2,82,29.85,5.0,South,18.4,29.9,0.05,,Overcast,180,2012-11-20 14:35:00
6:55 AM,60.8,57.2,88,29.86,4.0,South,18.4,32.2,0.08,,Overcast,180,2012-11-20 14:55:00
7:15 AM,59.0,57.2,94,29.84,4.0,South,23.0,34.5,0.04,,Overcast,180,2012-11-20 15:15:00
7:35 AM,59.0,57.2,94,29.88,2.0,South,18.4,31.1,0.22,,Overcast,170,2012-11-20 15:35:00
7:55 AM,59.0,55.4,88,29.88,2.0,South,16.1,39.1,0.33,,Overcast,180,2012-11-20 15:55:00
8:15 AM,59.0,57.2,94,29.91,3.0,WSW,9.2,17.3,0.03,,Mostly Cloudy,240,2012-11-20 16:15:00
8:35 AM,57.2,57.2,100,29.91,2.5,West,12.7,16.1,0.12,,Mostly Cloudy,260,2012-11-20 16:35:00
8:55 AM,57.2,53.6,88,29.92,4.0,SW,10.4,21.9,0.13,,Mostly Cloudy,220,2012-11-20 16:55:00
9:15 AM,55.4,53.6,94,29.92,2.5,SSW,9.2,19.6,N/A,,Overcast,200,2012-11-20 17:15:00
9:35 AM,57.2,53.6,88,29.92,10.0,South,5.8,-,0.01,,Mostly Cloudy,170,2012-11-20 17:35:00
9:55 AM,57.2,51.8,82,29.93,10.0,South,6.9,16.1,0.01,,Mostly Cloudy,180,2012-11-20 17:55:00
10:35 AM,57.2,53.6,88,29.93,10.0,SE,11.5,-,N/A,,Mostly Cloudy,130,2012-11-20 18:35:00
10:55 AM,59.0,55.4,88,29.93,10.0,SE,10.4,18.4,N/A,,Mostly Cloudy,140,2012-11-20 18:55:00
11:15 AM,59.0,53.6,82,29.93,10.0,SSE,9.2,19.6,N/A,,Mostly Cloudy,150,2012-11-20 19:15:00
11:35 AM,59.0,53.6,82,29.93,10.0,SE,10.4,-,N/A,,Overcast,140,2012-11-20 19:35:00
11:55 AM,59.0,55.4,88,29.92,10.0,SSE,10.4,-,N/A,,Overcast,150,2012-11-20 19:55:00
12:15 PM,62.6,55.4,77,29.93,10.0,SSE,6.9,-,N/A,,Mostly Cloudy,150,2012-11-20 20:15:00
12:35 PM,62.6,53.6,72,29.92,10.0,ESE,9.2,-,N/A,,Mostly Cloudy,120,2012-11-20 20:35:00
12:55 PM,60.8,53.6,77,29.93,10.0,SSE,8.1,-,N/A,,Mostly Cloudy,160,2012-11-20 20:55:00
1:15 PM,60.8,53.6,77,29.93,10.0,SE,8.1,-,N/A,,Mostly Cloudy,140,2012-11-20 21:15:00
1:55 PM,59.0,55.4,88,29.91,10.0,SE,6.9,-,N/A,,Overcast,140,2012-11-20 21:55:00
2:15 PM,59.0,55.4,88,29.91,10.0,SE,8.1,-,N/A,,Mostly Cloudy,140,2012-11-20 22:15:00
2:35 PM,59.0,55.4,88,29.91,10.0,SE,8.1,-,N/A,,Overcast,130,2012-11-20 22:35:00
2:55 PM,59.0,55.4,88,29.90,10.0,SE,11.5,-,N/A,,Overcast,140,2012-11-20 22:55:00
3:15 PM,57.2,55.4,94,29.89,10.0,ESE,11.5,-,N/A,,Overcast,120,2012-11-20 23:15:00
3:35 PM,57.2,55.4,94,29.89,10.0,ESE,12.7,-,N/A,,Overcast,120,2012-11-20 23:35:00
3:55 PM,57.2,55.4,94,29.88,10.0,ESE,11.5,-,N/A,,Overcast,120,2012-11-20 23:55:00
4:15 PM,57.2,55.4,94,29.88,10.0,SE,12.7,-,N/A,,Overcast,140,2012-11-21 00:15:00
4:35 PM,57.2,55.4,94,29.87,10.0,SE,10.4,-,N/A,,Overcast,140,2012-11-21 00:35:00
4:55 PM,57.2,53.6,88,29.86,10.0,SE,12.7,-,N/A,,Overcast,140,2012-11-21 00:55:00
5:15 PM,57.2,53.6,88,29.86,10.0,SE,12.7,18.4,N/A,,Overcast,140,2012-11-21 01:15:00
5:35 PM,57.2,53.6,88,29.88,9.0,West,6.9,-,N/A,,Overcast,280,2012-11-21 01:35:00
5:55 PM,53.6,53.6,100,29.89,2.5,WSW,9.2,-,0.11,,Mostly Cloudy,240,2012-11-21 01:55:00
6:15 PM,53.6,53.6,100,29.89,3.0,SSW,5.8,-,0.05,,Overcast,210,2012-11-21 02:15:00
6:35 PM,55.4,50.0,82,29.89,10.0,South,12.7,21.9,0.07,,Mostly Cloudy,170,2012-11-21 02:35:00
6:55 PM,55.4,53.6,94,29.89,10.0,South,13.8,21.9,0.07,,Mostly Cloudy,170,2012-11-21 02:55:00
7:15 PM,55.4,50.0,82,29.90,10.0,SE,6.9,-,N/A,,Overcast,130,2012-11-21 03:15:00
7:35 PM,55.4,50.0,82,29.89,10.0,SE,11.5,-,N/A,,Overcast,130,2012-11-21 03:35:00
7:55 PM,55.4,50.0,82,29.89,10.0,SE,9.2,-,N/A,,Overcast,140,2012-11-21 03:55:00
8:15 PM,53.6,53.6,100,29.89,10.0,East,8.1,-,N/A,,Scattered Clouds,100,2012-11-21 04:15:00
8:35 PM,53.6,53.6,100,29.89,10.0,East,10.4,18.4,N/A,,Scattered Clouds,100,2012-11-21 04:35:00
8:55 PM,53.6,53.6,100,29.90,10.0,ESE,9.2,17.3,N/A,,Mostly Cloudy,110,2012-11-21 04:55:00
9:15 PM,53.6,51.8,94,29.90,10.0,SE,12.7,-,N/A,,Mostly Cloudy,130,2012-11-21 05:15:00
9:35 PM,53.6,51.8,94,29.91,10.0,ESE,11.5,-,N/A,,Clear,110,2012-11-21 05:35:00
9:55 PM,53.6,50.0,88,29.91,10.0,SSE,12.7,17.3,N/A,,Mostly Cloudy,150,2012-11-21 05:55:00
10:15 PM,55.4,50.0,82,29.92,10.0,SE,8.1,-,N/A,,Mostly Cloudy,140,2012-11-21 06:15:00
10:35 PM,55.4,50.0,82,29.92,3.0,South,5.8,-,0.01,,Overcast,170,2012-11-21 06:35:00
10:55 PM,55.4,50.0,82,29.92,8.0,SSW,9.2,-,0.01,,Overcast,200,2012-11-21 06:55:00
11:15 PM,55.4,48.2,77,29.93,9.0,South,8.1,16.1,0.01,,Overcast,180,2012-11-21 07:15:00
11:35 PM,53.6,50.0,88,29.93,7.0,SE,8.1,16.1,0.01,,Mostly Cloudy,140,2012-11-21 07:35:00
11:55 PM,53.6,50.0,88,29.94,9.0,SSE,8.1,-,0.01,,Mostly Cloudy,150,2012-11-21 07:55:00